User: anonymous   Login
Location: Unspecified
(0.0000°N, 0.0000°E)
Time: 21:41:34
(UTC+00:00)
Language:

PLEIADES 1B - Orbit

View from above orbital plane
View from above orbital plane
View from above satellite
View from above satellite

Ground track
Ground track

The orbit data is extracted from the following two-line orbital elements,

1 39019U 12068A   15154.43282373  .00000145  00000-0  41097-4 0  9992
2 39019 098.1989 229.2210 0001460 083.9854 276.1514 14.58558424133159
Epoch (UTC): 03 June 2015 10:23:15
Eccentricity: 0.0001460
inclination: 98.1989°
perigee height: 697 km
apogee height: 699 km
right ascension of ascending node: 229.2210°
argument of perigee: 83.9854°
revolutions per day: 14.58558424
mean anomaly at epoch: 276.1514°
orbit number at epoch: 13315

The dashed part of the orbit path shows where the satellite is in the earth's shadow,  

DLR